Park Rapids, MN

10:59 AM CST on February 06, 2016 (GMT -0600)
Park Rapids Municipal

Weather History for KPKD - January, 2013

Change the Weather History Date:

Tuesday, January 22, 2013

  Actual Average Record
Temperature  
Mean Temperature -14 °F -  
Max Temperature 0 °F 23 °F 42 °F (1981)
Min Temperature -26 °F 1 °F -43 °F (1954)
Degree Days  
Heating Degree Days 79    
Moisture  
Dew Point -20 °F    
Average Humidity 71    
Maximum Humidity 82    
Minimum Humidity 63    
Precipitation  
Precipitation 0.00 in - - ()
Sea Level Pressure  
Sea Level Pressure 30.35 in    
Wind  
Wind Speed 3 mph (WSW)    
Max Wind Speed 8 mph    
Max Gust Speed -    
Visibility 10 miles    
Events      
Averages and records for this station are not official NWS values.
T = Trace of Precipitation, MM = Missing Value Source: NWS Daily Summary

Daily Weather History Graph

Daily Weather History Graph

Search for Another Location

Airport or City:

Trip Planner

Search our weather history database for the weather conditions in past years. The results will help you decide how hot, cold, wet, or windy it might be!

Date:

Astronomy

Jan. 22, 2013 Rise Set
Actual Time 7:55 AM CST 5:08 PM CST
Civil Twilight 7:22 AM CST 5:42 PM CST
Nautical Twilight 6:44 AM CST 6:19 PM CST
Astronomical Twilight 6:08 AM CST 6:55 PM CST
Moon 1:29 PM CST (1/22) 4:20 AM CST (1/22)
Length of Visible Light 10h 20m
Length of Day
9h 13m
Waxing Gibbous, 83% of the Moon is Illuminated
Jan 22
Waxing Gibbous
Jan 26
Full
Feb 3
Last Quarter
Feb 10
New
Feb 17
First Quarter

Hourly Weather History & Observations

Time (CST) Temp. Windchill Dew Point Humidity Pressure Visibility Wind Dir Wind Speed Gust Speed Precip Events Conditions
12:53 AM -22.0 °F -35.6 °F -27.9 °F 74% 30.37 in 10.0 mi West 4.6 mph - N/A   Clear
1:53 AM -22.0 °F - -29.0 °F 70% 30.38 in 10.0 mi Calm Calm - N/A   Clear
2:53 AM -25.1 °F -36.5 °F -31.0 °F 74% 30.39 in 10.0 mi WSW 3.5 mph - N/A   Clear
3:53 AM -24.0 °F - -29.9 °F 74% 30.40 in 10.0 mi Calm Calm - N/A   Clear
4:53 AM -24.0 °F - -29.9 °F 74% 30.40 in 10.0 mi Calm Calm - N/A   Clear
5:53 AM -26.0 °F - -33.0 °F 69% 30.42 in 10.0 mi Calm Calm - N/A   Clear
6:53 AM -25.1 °F - -32.1 °F 70% 30.40 in 10.0 mi Calm Calm - N/A   Clear
7:53 AM -24.0 °F - -31.0 °F 70% 30.40 in 10.0 mi Calm Calm - N/A   Clear
8:53 AM -24.0 °F - -27.9 °F 82% 30.42 in 10.0 mi Calm Calm - N/A   Clear
9:53 AM -18.9 °F - -24.0 °F 78% 30.41 in 10.0 mi Calm Calm - N/A   Clear
10:53 AM -13.0 °F - -20.0 °F 71% 30.42 in 10.0 mi Calm Calm - N/A   Clear
11:53 AM -9.0 °F - -15.0 °F 75% 30.39 in 10.0 mi Calm Calm - N/A   Clear
12:53 PM -4.0 °F -14.6 °F -13.0 °F 65% 30.36 in 10.0 mi WSW 4.6 mph - N/A   Clear
1:53 PM -4.0 °F -16.3 °F -13.0 °F 65% 30.35 in 10.0 mi WSW 5.8 mph - N/A   Clear
2:53 PM -2.0 °F -12.2 °F -11.9 °F 63% 30.35 in 10.0 mi West 4.6 mph - N/A   Mostly Cloudy
3:53 PM -2.0 °F -12.2 °F -11.9 °F 63% 30.34 in 10.0 mi SW 4.6 mph - N/A   Clear
4:53 PM -2.0 °F -16.6 °F -11.9 °F 63% 30.33 in 10.0 mi WSW 8.1 mph - N/A   Overcast
5:53 PM -2.0 °F -15.4 °F -11.0 °F 66% 30.32 in 10.0 mi WSW 6.9 mph - N/A   Partly Cloudy
6:53 PM -5.1 °F -19.1 °F -13.0 °F 69% 30.31 in 10.0 mi SW 6.9 mph - N/A   Clear
7:53 PM -8.0 °F -16.9 °F -14.1 °F 75% 30.30 in 10.0 mi SSW 3.5 mph - N/A   Mostly Cloudy
8:53 PM -5.1 °F -13.6 °F -11.9 °F 72% 30.28 in 10.0 mi South 3.5 mph - N/A   Overcast
9:53 PM -2.9 °F -13.3 °F -9.9 °F 72% 30.27 in 10.0 mi SW 4.6 mph - N/A   Overcast
10:53 PM -2.0 °F -12.2 °F -9.0 °F 72% 30.26 in 10.0 mi SW 4.6 mph - N/A   Overcast
11:53 PM -0.9 °F -8.9 °F -7.1 °F 75% 30.25 in 10.0 mi SW 3.5 mph - N/A   Overcast